Location: Rancho Del Sol Observatory
(38.7214°N, 120.6350°W)
Time: 13:20:30
(UTC-07:00)

Cosmos 2221 Rocket - Visible Passes

Search period start: 01 September 2015 00:00
Search period end: 11 September 2015 00:00
Orbit: 621 x 649 km, 82.5° (Epoch: 01 September)

Date Brightness Start Highest point End Pass type
(mag) Time Alt. Az. Time Alt. Az. Time Alt. Az.
01 Sep 6.7 02:19:18 12° NE 02:19:18 12° NE 02:19:40 10° NE visible
01 Sep 5.7 03:56:49 18° NNW 03:56:49 18° NNW 03:58:16 10° NNW visible
02 Sep 6.4 02:41:49 16° NNE 02:41:49 16° NNE 02:42:44 10° NNE visible
02 Sep 6.1 04:19:18 11° NW 04:19:18 11° NW 04:19:32 10° NW visible
03 Sep 6.2 03:04:17 16° N 03:04:17 16° N 03:05:15 10° N visible
04 Sep 6.2 03:26:44 13° NNW 03:26:44 13° NNW 03:27:22 10° N visible
06 Sep 6.8 02:34:08 10° N 02:34:08 10° N 02:34:12 10° N visible
